Location: Mount Cross
(36.6390°N, 79.4878°W)
Time: 11:28:57
(UTC+00:00)

Courier 1B - All Passes

Search period start: 26 March 2023 00:00
Search period end: 05 April 2023 00:00
Orbit: 962 x 1209 km, 28.3° (Epoch: 26 March)

Date Brightness Start Highest point End Pass type
(mag) Time Alt. Az. Time Alt. Az. Time Alt. Az.
26 Mar - 01:32:48 10° WSW 01:38:24 28° SSW 01:43:49 10° SE visible
26 Mar - 03:30:45 10° SW 03:31:27 10° SSW 03:32:10 10° SSW visible
26 Mar - 18:59:27 10° SSW 19:04:06 17° SSE 19:08:39 10° ESE daylight
26 Mar - 20:50:57 10° SW 20:57:35 34° SSE 21:03:53 10° ESE daylight
26 Mar - 22:44:26 10° WSW 22:51:14 43° S 22:57:40 10° ESE daylight
27 Mar - 00:38:42 10° WSW 00:44:47 33° SSW 00:50:36 10° SE visible
27 Mar - 02:34:29 10° WSW 02:37:56 15° SSW 02:41:20 10° S visible
27 Mar - 18:07:04 10° S 18:10:24 13° SSE 18:13:40 10° SE daylight
27 Mar - 19:57:22 10° SW 20:03:50 30° SSE 20:10:01 10° ESE daylight
27 Mar - 21:50:32 10° WSW 21:57:30 43° S 22:04:02 10° ESE daylight
27 Mar - 23:44:38 10° WSW 23:51:07 37° SSW 23:57:16 10° SE daylight
28 Mar - 01:39:44 10° WSW 01:44:24 19° SSW 01:48:55 10° SSE visible
28 Mar - 19:03:55 10° SSW 19:10:04 26° SSE 19:16:00 10° ESE daylight
28 Mar - 20:56:40 10° WSW 21:03:42 41° S 21:10:21 10° ESE daylight
28 Mar - 22:50:36 10° WSW 22:57:24 41° S 23:03:49 10° ESE daylight
29 Mar - 00:45:19 10° WSW 00:50:49 25° SSW 00:56:05 10° SSE visible
29 Mar - 18:10:43 10° SSW 18:16:18 21° SSE 18:21:46 10° ESE daylight
29 Mar - 20:02:52 10° SW 20:09:53 39° S 20:16:35 10° ESE daylight
29 Mar - 21:56:36 10° WSW 22:03:38 44° S 22:10:16 10° ESE daylight
29 Mar - 23:51:05 10° WSW 23:57:12 30° SSW 00:03:00 10° SE visible
30 Mar - 01:47:59 10° SW 01:50:18 12° SSW 01:52:36 10° S visible
30 Mar - 17:17:51 10° S 17:22:34 17° SSE 17:27:12 10° ESE daylight
30 Mar - 19:09:11 10° SW 19:16:04 35° SSE 19:22:43 10° ESE daylight
30 Mar - 21:02:38 10° WSW 21:09:50 45° S 21:16:39 10° ESE daylight
30 Mar - 22:56:55 10° WSW 23:03:30 35° SSW 23:09:44 10° SE daylight
31 Mar - 00:52:34 10° WSW 00:56:46 17° SSW 01:00:49 10° S visible
31 Mar - 16:25:41 10° S 16:28:50 13° SSE 16:31:58 10° SE daylight
31 Mar - 18:15:38 10° SW 18:22:16 30° SSE 18:28:43 10° ESE daylight
31 Mar - 20:08:44 10° WSW 20:16:00 44° S 20:22:56 10° ESE daylight
31 Mar - 22:02:49 10° WSW 22:09:45 40° S 22:16:19 10° SE daylight
31 Mar - 23:57:52 10° WSW 00:03:10 22° SSW 00:08:14 10° SSE visible
01 Apr - 17:22:17 10° SSW 17:28:28 26° SSE 17:34:34 10° ESE daylight
01 Apr - 19:14:53 10° WSW 19:22:08 42° S 19:29:09 10° ESE daylight
01 Apr - 21:08:47 10° WSW 21:15:58 43° S 21:22:48 10° ESE daylight
01 Apr - 23:03:27 10° WSW 23:09:31 27° SSW 23:15:17 10° SE daylight
02 Apr - 16:29:12 10° SSW 16:34:42 21° SSE 16:40:11 10° ESE daylight
02 Apr - 18:21:08 10° SW 18:28:16 39° SSE 18:35:16 10° ESE daylight
02 Apr - 20:14:46 10° WSW 20:22:07 45° S 20:29:09 10° ESE daylight
02 Apr - 22:09:12 10° WSW 22:15:48 33° SSW 22:22:05 10° SE daylight
03 Apr - 00:05:35 10° WSW 00:09:02 14° SSW 00:12:24 10° S visible
03 Apr - 15:36:32 10° S 15:40:57 16° SSE 15:45:25 10° ESE daylight
03 Apr - 17:27:31 10° SW 17:34:26 34° SSE 17:41:17 10° ESE daylight
03 Apr - 19:20:50 10° WSW 19:28:14 46° S 19:35:25 10° ESE daylight
03 Apr - 21:15:02 10° WSW 21:22:02 38° SSW 21:28:43 10° SE daylight
03 Apr - 23:10:30 10° WSW 23:15:25 19° SSW 23:20:10 10° SSE daylight
04 Apr - 14:44:49 10° SSE 14:47:15 12° SSE 14:49:43 10° SE daylight
04 Apr - 16:34:04 10° SW 16:40:37 30° SSE 16:47:10 10° ESE daylight
04 Apr - 18:26:59 10° WSW 18:34:20 45° S 18:41:36 10° ESE daylight
04 Apr - 20:20:58 10° WSW 20:28:13 42° S 20:35:12 10° ESE daylight
04 Apr - 22:15:54 10° WSW 22:21:46 24° SSW 22:27:24 10° SSE daylight
